This demonstration page uses our WeatherBlox Daily Observations layout. Learn more.

Hourly Observations for May 17, 2020

Temp ( °F °C ) Dew Point ( °F °C ) Humidity (%) Winds ( mph kmh ) Pressure ( in mb ) Visibility ( mi km ) Precip ( " mm )
12:15 am 00:15 Clear 64 18 52 11 64 64 Calm 30.14 1021 10 16.0934 0 0
12:35 am 00:35 Clear 63 17 54 12 73 73 Calm 30.16 1021 10 16.0934 0 0
12:55 am 00:55 Clear 63 17 52 11 68 68 Calm 30.16 1021 10 16.0934 0 0
1:15 am 01:15 Clear 63 17 52 11 68 68 Calm 30.15 1021 10 16.0934 0 0
1:35 am 01:35 Clear 63 17 52 11 68 68 E 5 7 30.15 1021 10 16.0934 0 0
1:55 am 01:55 Clear 63 17 55 13 77 77 SE 6 9 30.15 1021 10 16.0934 0 0
2:15 am 02:15 Partly Cloudy 63 17 55 13 77 77 S 3 6 30.16 1021 10 16.0934 0 0
2:35 am 02:35 Partly Cloudy 63 17 57 14 83 83 undefined N/A 30.16 1021 10 16.0934 0 0
2:55 am 02:55 Partly Cloudy 63 17 57 14 83 83 Calm 30.15 1021 10 16.0934 0 0
3:15 am 03:15 Mostly Cloudy 59 15 55 13 88 88 Calm 30.15 1021 10 16.0934 0 0
3:35 am 03:35 Cloudy 61 16 55 13 83 83 E 3 6 30.16 1021 10 16.0934 0 0
3:55 am 03:55 Cloudy 61 16 57 14 88 88 Calm 30.15 1021 10 16.0934 0 0
4:15 am 04:15 Mostly Cloudy 61 16 59 15 94 94 Calm 30.15 1021 10 16.0934 0 0
4:35 am 04:35 Partly Cloudy 61 16 59 15 94 94 ENE 5 7 30.15 1021 10 16.0934 0 0
4:55 am 04:55 Mostly Cloudy 61 16 59 15 94 94 E 8 13 30.15 1021 10 16.0934 0 0
5:15 am 05:15 Cloudy 61 16 57 14 88 88 ENE 3 6 30.16 1021 10 16.0934 0 0
5:35 am 05:35 Cloudy 61 16 57 14 88 88 NE 5 7 30.16 1021 10 16.0934 0 0
5:55 am 05:55 Cloudy 61 16 57 14 88 88 ENE 6 9 30.16 1021 10 16.0934 0 0
6:15 am 06:15 Cloudy 61 16 57 14 88 88 Calm 30.17 1022 10 16.0934 0 0
6:35 am 06:35 Cloudy 61 16 57 14 88 88 ENE 6 9 30.17 1022 10 16.0934 0 0
6:55 am 06:55 Cloudy 59 15 57 14 94 94 ENE 5 7 30.18 1022 10 16.0934 0 0
7:15 am 07:15 Cloudy 61 16 55 13 83 83 ENE 5 7 30.18 1022 10 16.0934 0 0
7:35 am 07:35 Cloudy 61 16 55 13 83 83 ENE 3 6 30.19 1022 10 16.0934 0 0
7:55 am 07:55 Cloudy 61 16 55 13 83 83 E 3 6 30.19 1022 10 16.0934 0 0
8:15 am 08:15 Cloudy 61 16 55 13 83 83 NE 5 7 30.19 1022 10 16.0934 0 0
8:35 am 08:35 Cloudy 61 16 55 13 83 83 E 8 13 30.2 1023 10 16.0934 0 0
8:55 am 08:55 Cloudy 61 16 55 13 83 83 E 5 7 30.2 1023 10 16.0934 0 0
9:15 am 09:15 Cloudy 63 17 55 13 77 77 ENE 5 7 30.2 1023 10 16.0934 0 0
9:35 am 09:35 Cloudy 63 17 55 13 77 77 E 6 9 30.2 1023 10 16.0934 0 0
9:55 am 09:55 Cloudy 63 17 55 13 77 77 E 8 13 30.21 1023 10 16.0934 0 0
10:15 am 10:15 Cloudy 63 17 55 13 77 77 E 6 9 30.21 1023 10 16.0934 0 0
10:35 am 10:35 Cloudy 63 17 55 13 77 77 ESE 5 7 30.21 1023 10 16.0934 0 0
10:55 am 10:55 Cloudy 64 18 55 13 73 73 ESE 6 9 30.21 1023 10 16.0934 0 0
11:15 am 11:15 Cloudy 64 18 55 13 73 73 ESE 6 9 30.21 1023 10 16.0934 0 0
11:35 am 11:35 Cloudy 64 18 54 12 68 68 SE 9 15 30.21 1023 10 16.0934 0 0
11:55 am 11:55 Cloudy 64 18 54 12 68 68 SE 7 11 30.21 1023 10 16.0934 0 0
12:15 pm 12:15 Cloudy 64 18 55 13 73 73 E 8 13 30.2 1023 10 16.0934 0 0
12:35 pm 12:35 Cloudy 64 18 55 13 73 73 ESE 9 15 30.2 1023 10 16.0934 0 0
12:55 pm 12:55 Cloudy 64 18 55 13 73 73 SE 7 11 30.2 1023 10 16.0934 0 0
1:15 pm 13:15 Cloudy 64 18 55 13 73 73 E 7 11 30.2 1023 10 16.0934 0 0
1:35 pm 13:35 Cloudy 64 18 55 13 73 73 ESE 12 19 30.2 1023 10 16.0934 0 0
1:55 pm 13:55 Cloudy 64 18 55 13 73 73 E 8 13 30.2 1023 10 16.0934 0 0
2:15 pm 14:15 Cloudy 64 18 55 13 73 73 SE 9 15 30.19 1022 10 16.0934 0 0
2:35 pm 14:35 Cloudy 64 18 55 13 73 73 ESE 8 13 30.19 1022 10 16.0934 0 0
2:55 pm 14:55 Cloudy 64 18 55 13 73 73 ESE 8 13 30.19 1022 10 16.0934 0 0
3:15 pm 15:15 Cloudy 64 18 57 14 78 78 ESE 6 9 30.18 1022 10 16.0934 0 0
3:35 pm 15:35 Cloudy 64 18 55 13 73 73 SE 9 15 30.17 1022 10 16.0934 0 0
3:55 pm 15:55 Cloudy 66 19 55 13 68 68 ESE 9 15 30.16 1021 10 16.0934 0 0
4:15 pm 16:15 Cloudy 64 18 57 14 78 78 ESE 8 13 30.15 1021 10 16.0934 0 0
4:35 pm 16:35 Cloudy 64 18 57 14 78 78 E 6 9 30.15 1021 10 16.0934 0 0
4:55 pm 16:55 Cloudy 64 18 57 14 78 78 E 9 15 30.15 1021 10 16.0934 0 0
5:15 pm 17:15 Cloudy 64 18 57 14 78 78 ENE 6 9 30.15 1021 10 16.0934 0 0
5:35 pm 17:35 Cloudy 64 18 57 14 78 78 E 8 13 30.14 1021 10 16.0934 0 0
5:55 pm 17:55 Cloudy 64 18 57 14 78 78 ESE 9 15 30.13 1020 10 16.0934 0 0
6:15 pm 18:15 Cloudy 64 18 59 15 83 83 SE 6 9 30.13 1020 10 16.0934 0 0
6:35 pm 18:35 Cloudy 64 18 57 14 78 78 ESE 6 9 30.14 1021 10 16.0934 0 0
6:55 pm 18:55 Cloudy 64 18 59 15 83 83 ENE 8 13 30.13 1020 10 16.0934 0 0
7:15 pm 19:15 Cloudy 64 18 59 15 83 83 E 6 9 30.13 1020 10 16.0934 0 0
7:35 pm 19:35 Cloudy 64 18 57 14 78 78 ESE 5 7 30.13 1020 10 16.0934 0 0
7:55 pm 19:55 Cloudy 64 18 59 15 83 83 ESE 7 11 30.13 1020 10 16.0934 0 0
8:15 pm 20:15 Cloudy 63 17 57 14 83 83 E 7 11 30.14 1021 10 16.0934 0 0
8:35 pm 20:35 Cloudy 63 17 57 14 83 83 E 6 9 30.14 1021 10 16.0934 0 0
8:55 pm 20:55 Cloudy 63 17 57 14 83 83 E 5 7 30.14 1021 10 16.0934 0 0
9:15 pm 21:15 Cloudy 63 17 55 13 77 77 E 5 7 30.15 1021 10 16.0934 0 0
9:35 pm 21:35 Cloudy 63 17 55 13 77 77 ESE 5 7 30.15 1021 10 16.0934 0 0
9:55 pm 21:55 Cloudy 63 17 55 13 77 77 ESE 8 13 30.15 1021 10 16.0934 0 0
10:15 pm 22:15 Cloudy 63 17 54 12 73 73 ESE 9 15 30.15 1021 10 16.0934 0 0
10:35 pm 22:35 Cloudy 61 16 54 12 77 77 ESE 9 15 30.15 1021 10 16.0934 0 0
10:55 pm 22:55 Cloudy 61 16 54 12 77 77 ESE 8 13 30.15 1021 10 16.0934 0 0
11:15 pm 23:15 Cloudy 61 16 52 11 72 72 E 7 11 30.14 1021 10 16.0934 0 0
11:35 pm 23:35 Cloudy 61 16 52 11 72 72 E 7 11 30.13 1020 10 16.0934 0 0
11:55 pm 23:55 Mostly Cloudy 59 15 52 11 77 77 E 6 9 30.13 1020 10 16.0934 0 0

Powered by AerisWeather